Starlink 32649

operational
NORAD ID: 62305 Int'l Des: 2024-239 Owner: SPXS Country: US Constellation: starlink
LEOCIRCULAR

Starlink 32649について

説明を読み込み中...

リアルタイム位置

3D地球を読み込み中...

次回通過

高度履歴

Altitude vs Time

uPlot chart will show altitude changes over time

軌道要素

1 62305U 24239E 25260.56900128 .00029506 00000-0 10036-2 0 9996
2 62305 53.1557 277.6773 0004508 87.4931 272.6586 15.30217485 42886
Epoch: Sep 17, 2025 • Age: 22 hours

現在のステータス

高度 491.0 km
速度 7.62 km/s
衛星直下点 -40.66°S, 65.57°E
打ち上げ日 Dec 13, 2024
運用期間 0.7 years
タイプ internet

技術仕様

分類 Payload
質量 730.00 kg
乾燥質量 700.00 kg
総質量 730.00 kg
長さ 0.30 m
直径 4.10 m
スパン 29.00 m
形状 Box + pan
製造者 SPXS
バスタイプ Starlink V2M
フェーズステータス In Orbit
所有者/国 SPXS/US

大規模コンステレーション

Loading constellations...